Location: Newark
(48.2861°N, 1.9308°W)
Time: 09:23:14
(UTC+00:00)

N. Korean satellite - Visible Passes

Search period start: 24 September 2019 00:00
Search period end: 04 October 2019 00:00
Orbit: 454 x 509 km, 97.2° (Epoch: 23 September)

Date Brightness Start Highest point End Pass type
(mag) Time Alt. Az. Time Alt. Az. Time Alt. Az.
27 Sep 9.9 05:10:39 10° NE 05:12:43 15° E 05:14:48 10° SE visible
28 Sep 10.7 18:33:21 10° W 18:33:44 10° W 18:34:06 10° W visible
30 Sep 9.4 05:27:40 10° NE 05:30:31 24° E 05:33:23 10° SSE visible
01 Oct 10.1 05:03:29 10° ENE 05:05:04 13° E 05:06:40 10° ESE visible
02 Oct 10.3 18:24:35 10° WSW 18:26:04 12° W 18:27:32 10° WNW visible
